Location: Coll
(42.4728°N, 0.7714°E)
Time: 12:47:44
(UTC+00:00)

Cosmos 2195 Rocket - Pass Details

Date: 23 October 2020
Orbit: 948 x 993 km, 82.9° (Epoch: 30 November)

Event Time Altitude Azimuth Distance (km) Brightness Sun altitude
Rises 05:27:46 0° 189° (S) 3,671 7.5 -10.2°
Reaches altitude 10° 05:30:17 10° 190° (S) 2,721 6.8 -9.8°
Maximum altitude 05:36:31 80° 277° (W) 990 4.5 -8.6°
Drops below altitude 10° 05:42:44 10° 5° (N) 2,707 6.8 -7.5°
Sets 05:45:15 0° 7° (N) 3,652 7.5 -7.1°
